{"data":{"norad_id":66962,"intl_designator":"2025-288D","name":"STARLINK-35874","alt_names":[],"object_type":"PAYLOAD","status":"ACTIVE","operator":null,"country":"US","launch_date":"2025-12-08","launch_site_code":"AFETR","launch_vehicle":null,"mission":null,"orbit_class":"UNKNOWN","rcs_meters":null,"size_class":null,"mass_kg":null,"dimensions":null,"purposes":["comms"],"wikipedia_slug":null,"has_3d_model":false,"image_url":null,"decayed_at":null,"tle_current":{"epoch":"2026-05-24T20:57:05.412384Z","epoch_age_seconds":82710,"freshness":"FRESH","line1":"1 66962U 25288D   26144.87297931  .00022077  00000+0  80918-3 0  9993","line2":"2 66962  43.0028 313.6440 0001784 268.7475  91.3172 15.27588528 26932","mean_motion":15.27588528,"eccentricity":0.0001784,"inclination_deg":43.0028,"raan_deg":313.644,"arg_perigee_deg":268.7475,"mean_anomaly_deg":91.3172,"bstar":0.00080918,"rev_number":2693,"period_min":94.266222454899,"perigee_km":481.79952921457,"apogee_km":484.24759130247,"semimajor_km":6861.1605602585,"source":"CELESTRAK","updated_at":"2026-05-25T13:38:21.393071Z"}}}